sat.trackr.live / text

‹ back to catalog

STARLINK-3929

NORAD 52567 · 2022-051AL

PAYLOAD ACTIVE UNKNOWN

§ Identity

Operator
Country
US
Launch date
2022-05-13
Launch site
AFWTR
Launch vehicle
Mass (kg)
RCS (m²)

Purposes: comms

External: N2YO · Heavens-Above · Gunter

§ Orbital elements

Epoch: 2026-09-19T20:39:26.525952Z

Period
93.85 min
Inclination
53.1599°
Eccentricity
0.0001248
Mean motion
15.34386736 rev/d
Perigee alt
461.9 km
Apogee alt
463.6 km
Semi-major
6,840.9 km
B*
5.1365e-5
RAAN
310.7421°
Arg perigee
84.9346°
Mean anomaly
275.1799°
Rev number
24,112

§ Raw data

STARLINK-39291 52567U 22051AL  26262.86072368  .00001359  00000+0  51365-4 0  99942 52567  53.1599 310.7421 0001248  84.9346 275.1799 15.34386736241122

JSON: /api/v1/satellites/52567 · /tle

For live sub-satellite position, see the globe view (requires WebGL).

§ Visibility from observer

Set your observer location to see the next 7 days of passes ≥ 10°. The values pass through the URL so the page stays shareable.

No JS? Fill the form by hand. The geolocation button needs JavaScript.